Wisdom Guild ホーム

ショップ情報

登録データ

43,935 件

検索フィルター

カード名

値段

円 ~

在庫

枚 ~

東京MTG登録済みカード一覧

カード名価格セット言語在庫状態最終更新最終チェック
発明品の唸りWhir of Invention170AERENG1 枚EX-売り場18/04/25 11:2718/04/25 11:40
発明品の唸りWhir of Invention180AERENG4 枚EX+売り場18/04/25 11:2718/04/25 11:40
軍団の上陸Legion's Landing1,290XLNENG1 枚EX+売り場18/04/25 11:2718/04/25 11:40
異臭の池Fetid Pools590AKHENG1 枚EX-売り場18/04/25 11:2718/04/25 11:40
アゾールの門口Azor's Gateway750RIXENG1 枚EX+売り場18/04/25 11:2718/04/25 11:40
秘宝探究者、ヴラスカVraska, Relic Seeker890XLNRUS1 枚NM売り場18/04/25 11:2718/04/25 11:40
本質の散乱Essence Scatter45AKHJPN1 枚EX+売り場18/04/25 11:2718/04/25 11:40
顕在的防御Blossoming Defense80KLDENG1 枚EX+売り場18/04/25 11:2718/04/25 11:40
封じ込めSeal Away90DOMJPN20 枚NM売り場18/04/25 11:2718/04/25 11:40
豊潤の声、シャライShalai, Voice of Plenty790DOMJPN7 枚NM売り場18/04/25 11:2718/04/25 11:40
カード名価格セット言語在庫状態リンク最終更新最終チェック
ベナリアの軍司令Benalish Marshal490DOMJPN4 枚NM売り場18/04/25 11:2718/04/25 11:40
刃の翼ヴェリックスVerix Bladewing390DOMJPN8 枚NM売り場18/04/25 11:2718/04/25 11:40
翡翠光のレインジャーJadelight Ranger1,490RIXENG6 枚EX+売り場18/04/25 11:2718/04/25 11:40
軍団の上陸Legion's Landing690XLNENG3 枚EX+売り場18/04/25 11:2718/04/25 11:40
凶兆艦隊の向こう見ずDire Fleet Daredevil650RIXENG2 枚EX+売り場18/04/25 11:2718/04/25 11:40
アズカンタの探索Search for Azcanta2,390XLNGER1 枚NM売り場18/04/25 11:2718/04/25 11:40
再燃するフェニックスRekindling Phoenix4,990RIXENG1 枚NM売り場18/04/25 11:2718/04/25 11:40
翡翠光のレインジャーJadelight Ranger1,590RIXENG9 枚NM売り場18/04/25 11:2718/04/25 11:40
凶兆艦隊の向こう見ずDire Fleet Daredevil690RIXENG8 枚NM売り場18/04/25 11:2718/04/25 11:40
異臭の池Fetid Pools650AKHENG3 枚EX+売り場18/04/25 11:2718/04/25 11:40
カード名価格セット言語在庫状態リンク最終更新最終チェック
残骸の漂着Settle the Wreckage750XLNENG1 枚EX+売り場18/04/25 11:2718/04/25 11:40
殺戮の暴君Carnage Tyrant2,490XLNENG4 枚EX+売り場18/04/25 11:2718/04/25 11:40
ヴラスカの侮辱Vraska's Contempt1,790XLNENG4 枚EX+売り場18/04/25 11:2718/04/25 11:39
アズカンタの探索Search for Azcanta2,190XLNENG5 枚EX+売り場18/04/25 11:2718/04/25 11:39
歩行バリスタWalking Ballista1,490AERJPN1 枚EX+売り場18/04/25 11:2718/04/25 11:39
軍団の上陸Legion's Landing1,490XLNJPN1 枚NM売り場18/04/25 11:2718/04/25 11:39
逆毛ハイドラBristling Hydra90KLDENG3 枚EX+売り場18/04/25 11:2718/04/25 11:39
殺戮の暴君Carnage Tyrant2,690XLNENG9 枚NM売り場18/04/25 11:2718/04/25 11:39
ヴラスカの侮辱Vraska's Contempt1,890XLNENG9 枚NM売り場18/04/25 11:2718/04/25 11:39
アズカンタの探索Search for Azcanta2,390XLNENG1 枚NM売り場18/04/25 11:2718/04/25 11:39
カード名価格セット言語在庫状態リンク最終更新最終チェック
残骸の漂着Settle the Wreckage790XLNENG3 枚NM売り場18/04/25 11:2718/04/25 11:39
マーフォークの枝渡りMerfolk Branchwalker150XLNJPN11 枚NM売り場18/04/25 11:2718/04/25 11:39
航路の作成Chart a Course90XLNJPN2 枚NM売り場18/04/25 11:2718/04/25 11:39
機知の勇者Champion of Wits320HOUENG3 枚EX+売り場18/04/25 11:2718/04/25 11:39
予言によりAs Foretold690AKHENG2 枚EX+売り場18/04/25 11:2718/04/25 11:39
試練に臨むギデオンGideon of the Trials950AKHENG1 枚EX+売り場18/04/25 11:2718/04/25 11:39
地揺すりのケンラEarthshaker Khenra230HOUJPN1 枚EX+売り場18/04/25 11:2718/04/25 11:39
スカラベの神The Scarab God2,990HOUENG6 枚NM売り場18/04/25 11:2718/04/25 11:38
削剥Abrade290HOUJPN2 枚NM売り場18/04/25 11:2718/04/25 11:38
バントゥ最後の算段Bontu's Last Reckoning290HOUJPN3 枚NM売り場18/04/25 11:2718/04/25 11:38
カード名価格セット言語在庫状態リンク最終更新最終チェック
灌漑農地Irrigated Farmland320AKHENG7 枚EX+売り場18/04/25 11:2718/04/25 11:38
死の権威、リリアナLiliana, Death's Majesty750AKHENG3 枚EX+売り場18/04/25 11:2718/04/25 11:38
不屈の神ロナスRhonas the Indomitable1,690AKHENG5 枚EX+売り場18/04/25 11:2718/04/25 11:38
ヒエログリフの輝きHieroglyphic Illumination30AKHENG5 枚NM売り場18/04/25 11:2718/04/25 11:38
本質の散乱Essence Scatter50AKHENG3 枚NM売り場18/04/25 11:2718/04/25 11:38
灌漑農地Irrigated Farmland790AKHENG1 枚NM売り場18/04/25 11:2718/04/25 11:38
不屈の神ロナスRhonas the Indomitable1,790AKHENG5 枚NM売り場18/04/25 11:2718/04/25 11:38
熱烈の神ハゾレトHazoret the Fervent1,490AKHENG1 枚NM売り場18/04/25 11:2718/04/25 11:38
死の権威、リリアナLiliana, Death's Majesty790AKHENG3 枚NM売り場18/04/25 11:2718/04/25 11:38
賞罰の天使Angel of Sanctions290AKHENG5 枚NM売り場18/04/25 11:2718/04/25 11:38

免責事項

本システムは、各カードショップ様の了承のもと自動的にシングルカード価格データを収集・解析し提供しております。 実際の販売価格や在庫は変動しますので、この価格で販売されることを保証するものではありません。 また、カードの状態や販売方法などは各カードショップ様によって異なる他、データは自動解析されたものですので、誤記等が存在する可能性もあります。 購入時に各ショップ様のウェブサイトにてよく御確認ください。
特記無き価格情報は、税込価格です。ショップでの表示が税抜のみの場合は、独自に消費税相当額を加算しています。
本システムを利用したことによるいかなる損害も保証致しかねますので、御認識の程宜しく御願い致します。
© 1999-2018 Wisdom Guild, OWLAIR networks, All rights reserved.
管理者連絡先 | 権利表記 (実行時間:0.52 秒)